Regional Weather Roundup
Issued by NWS

Home | Current Version | Previous Version | Graphics & Text | Print | Product List | Glossary On
Versions: 1 2 3 4 5 6 7 8 9 10 11 12 13 14 15 16 17 18 19 20 21 22 23 24 25 26 27 28 29 30 31 32 33 34 35 36 37 38 39 40 41 42 43 44 45 46 47 48 49 50
000
ASUS45 KCYS 060110
RWRWY

WYOMING REGIONAL WEATHER ROUNDUP
NATIONAL WEATHER SERVICE CHEYENNE WY
600 PM MST THU MAR 05 2015

NOTE:  "FAIR" INDICATES FEW OR NO CLOUDS BELOW 12,000 FEET
WITH NO SIGNIFICANT WEATHER AND/OR OBSTRUCTIONS TO VISIBILITY.

WYZ001-060200-
YELLOWSTONE NATIONAL PARK

CITY           SKY/WX    TMP DP  RH WIND       PRES   REMARKS
LK YELLOWSTONE   N/A     25   9  50 CALM      30.29S
W YELLOWSTONE  NOT AVBL

$$
WYZ002>013-054>058-071-098>099-060200-
NORTHERN WYOMING

CITY           SKY/WX    TMP DP  RH WIND       PRES   REMARKS
JACKSON        CLEAR     34  12  40 SW9G24    30.30F WCI  26
CODY           CLOUDY    41  18  38 CALM      30.16S
GREYBULL       FAIR      37  15  40 SE3       30.20S
WORLAND        FAIR      35  21  56 S7        30.19F WCI  29
SHERIDAN       FAIR      32  21  64 SW7       30.14S WCI  26
BUFFALO        FAIR      37  13  37 S7        30.16S WCI  32
GILLETTE       FAIR      31  20  63 W8        30.14R WCI  23
HULETT         FAIR      37  18  44 W5        30.14R WCI  34
NEWCASTLE      FAIR      34  14  44 NW5       30.15S WCI  30

$$
WYZ014>020-022>026-101>103-060200-
CENTRAL WYOMING

CITY           SKY/WX    TMP DP  RH WIND       PRES   REMARKS
BIG PINEY      FAIR      32  11  41 N14       30.31R WCI  22
PINEDALE       FAIR      28  14  54 W14       30.29R WCI  17
DUBOIS         FAIR      28  10  47 NW14      30.22R WCI  17
LANDER         FAIR      22  14  71 CALM      30.20S
RIVERTON       FAIR      20  11  68 CALM      30.22S
CASPER         FAIR      31  20  63 SW14      30.19F WCI  21
DOUGLAS        FAIR      30  19  63 CALM      30.20R

$$
WYZ021-027>030-104>119-060200-
SOUTHERN WYOMING

CITY           SKY/WX    TMP DP  RH WIND       PRES   REMARKS
EVANSTON       FAIR      30  15  53 W13       30.37R WCI  20
KEMMERER       FAIR      34  14  44 W18       30.33R WCI  23
FORT BRIDGER   FAIR      34  20  56 SW15      30.37S WCI  24
ROCK SPRINGS   FAIR      31  20  63 W24       30.28S WCI  17
DIXON          FAIR      32  17  52 SW7       30.36R WCI  26
RAWLINS        FAIR      29  16  58 W15       30.26R WCI  18
SARATOGA       FAIR      28  14  54 SW13      30.29R WCI  18
LARAMIE        FAIR      26  13  57 W16       30.21R WCI  14
CHEYENNE       FAIR      32  15  49 S9        30.21R WCI  24
TORRINGTON     FAIR      37  18  46 W7        30.20R WCI  32
PINE BLUFFS    FAIR      34  18  51 NW13      30.22R WCI  25

$$



USA.gov is the U.S. government's official web portal to all federal, state and local government web resources and services.